Погода в Йенбае

Вьетнам     21°42′42″N   104°53′07″E
темп.,
°C
ветер,
м/с
пор.,
м/с
влажн.,
%
обл.,
%
осадки,
мм/ч
давл.,
гПа
погр.,
м
23 января, вс
вс2301:00+19с0092100 0.1 101173
04:00+18ссз119480 0.1 1009106
07:00+18сз1193100 0.2 101183
10:00+20ссз118483 0.1 1013320
13:00+20всв117874 0.1 1010445
16:00+21с12723 0.0 1008356
19:00+20зсз11825 0.0 100911
22:00+19ююз00856 0.0 101111
24 января, пн
пн2401:00+19з118866 0.4 101021
04:00+18сз1190100 0.4 101065
07:00+18с1191100 0.6 101187
10:00+19ссз118998 0.2 1014207
13:00+21всв118186 0.2 1011447
16:00+22в127773 0.1 1009488
19:00+21вюв1283100 0.1 101140
22:00+21вюв1288100 0.1 101243
25 января, вт
вт2501:00+20вюв1289100 0.4 101275
04:00+20юв1390100 0.4 1011132
07:00+20юв259370 0.9 1013305
10:00+22юв468139 0.4 1014457
13:00+23юв467520 0.9 1011539
16:00+23юв467542 0.1 1009507
19:00+21юв368499 0.1 1011219
22:00+20юв2588100 0.1 1013261
26 января, ср
ср2601:00+20юв2692100 0.3 1013311
04:00+20юв3892100 0.5 1012511
07:00+19юв3893100 0.9 1013473
10:00+20юв3790100 0.3 1015506
13:00+23юв367373 0.6 1011589
16:00+23юв477655 0.1 1009476
19:00+21юв2585100 0.3 1012199
22:00+20юв2489100 0.3 1013228
27 января, чт
чт2701:00+20юв3693100 0.9 1013292
04:00+20юв3794100 0.7 1012482
07:00+20юв2795100 1.4 1013447
10:00+21юв359198 0.3 1015370
13:00+23юв357774 0.6 1011572
16:00+23вюв367688 0.1 1010486
19:00+22юв378489 0.4 1011277
22:00+21ююв3791100 0.4 1013377